Date String (YYYY-MM-DD hh:mm:ss) UTC,Instrument flags,absolute air pressure of the measurement (hPa),sample flow rate (lpm),inlet stack bypass flow (lpm),air temperature of the measurement (°C),ambient temperature measured by the external sensor (°C),aerosol sample conditioner tube jacket temperature (°C),OPC LED temperature (°C),internal box temperature (°C),relative humidity of the measurement (%),span deviation,mass concentration of particles derived from Lorenz-Mie calculation of OPC scattering (μg/m³),mass concentration of particles derived from Lorenz-Mie calculation of OPC scattering (μg/m³),mass concentration of particles derived from Lorenz-Mie calculation of OPC scattering (μg/m³)
DateTimeUTC,F1_M11,P_M11,Q1_M11,Q2_M11,T1_M11,T2_M11,T3_M11,T4_M11,T5_M11,U1_M11,ZSPAN_M11,X0_M11,X2_M11,X1_M11
2023-10-24 08:00:00,SystemResetWarning,0824.0,5.01,000.00,028.7,026.0,000.0,037.4,030.2,12.4,0000.0,0018.53,0005.72,0004.27
2023-10-24 08:01:00,SystemResetWarning,0824.0,4.99,000.00,028.7,026.3,000.0,037.4,030.2,12.5,0000.0,0018.25,0005.68,0004.27
2023-10-24 08:02:00,SystemResetWarning,0824.0,4.99,000.00,028.7,026.5,000.0,037.4,030.2,12.5,0001.5,0017.41,0005.71,0004.28
2023-10-24 08:03:00,SystemResetWarning,0824.0,5.00,000.00,028.7,026.7,000.0,037.3,030.2,12.5,0002.7,0018.59,0005.74,0004.28
2023-10-24 08:04:00,SystemResetWarning,0824.0,5.00,000.00,028.7,026.8,000.0,037.3,030.3,12.4,0002.3,0017.80,0005.70,0004.28
2023-10-24 08:05:00,SystemResetWarning,0824.0,5.00,000.00,028.7,027.0,000.0,037.3,030.3,12.4,0002.4,0017.99,0005.71,0004.27
2023-10-24 08:06:00,SystemResetWarning,0824.0,5.01,000.00,028.7,027.0,000.0,037.3,030.3,12.4,0002.0,0017.95,0005.71,0004.24
2023-10-24 08:07:00,SystemResetWarning,0824.1,5.00,000.00,028.7,027.1,000.0,037.3,030.3,12.4,0001.3,0017.90,0005.79,0004.25
2023-10-24 08:08:00,SystemResetWarning,0824.1,5.00,000.00,028.7,027.2,000.0,037.3,030.3,12.4,0000.4,0018.07,0005.85,0004.25
2023-10-24 08:09:00,SystemResetWarning,0824.0,5.00,000.00,028.8,027.2,000.0,037.3,030.4,12.3,0000.8,0018.51,0005.87,0004.24
2023-10-24 08:10:00,SystemResetWarning,0824.1,4.99,000.00,028.8,027.3,000.0,037.3,030.4,12.3,0001.1,0019.73,0005.89,0004.25
2023-10-24 08:11:00,SystemResetWarning,0824.1,4.99,000.00,028.8,027.3,000.0,037.3,030.4,12.3,0000.9,0021.12,0005.86,0004.25
2023-10-24 08:12:00,SystemResetWarning,0824.0,5.00,000.00,028.8,027.4,000.0,037.3,030.4,12.3,0000.8,0020.92,0005.89,0004.24
2023-10-24 08:13:00,SystemResetWarning,0824.1,5.00,000.00,028.8,027.4,000.0,037.3,030.4,12.3,0000.3,0020.67,0005.87,0004.22
2023-10-24 08:14:00,SystemResetWarning,0824.1,5.00,000.00,028.8,027.4,000.0,037.3,030.5,12.4,0000.4,0019.91,0005.85,0004.22
2023-10-24 08:15:00,SystemResetWarning,0824.2,5.00,000.00,028.8,027.5,000.0,037.3,030.5,12.4,0001.1,0019.81,0005.86,0004.22
2023-10-24 08:16:00,SystemResetWarning,0824.2,5.00,000.00,028.9,027.5,000.0,037.3,030.5,12.4,0001.2,0019.80,0005.85,0004.21
2023-10-24 08:17:00,SystemResetWarning,0824.2,5.00,000.00,028.9,027.5,000.0,037.3,030.5,12.3,0001.5,0019.01,0005.82,0004.23
2023-10-24 08:18:00,SystemResetWarning,0824.2,5.00,000.00,028.9,027.5,000.0,037.3,030.5,12.3,0002.4,0019.62,0005.85,0004.24
2023-10-24 08:19:00,SystemResetWarning,0824.2,5.00,000.00,028.9,027.6,000.0,037.3,030.6,12.3,0002.7,0020.59,0005.82,0004.26
2023-10-24 08:20:00,SystemResetWarning,0824.1,5.00,000.00,028.9,027.6,000.0,037.3,030.6,12.4,0003.2,0020.87,0005.80,0004.28
2023-10-24 08:21:00,SystemResetWarning,0824.1,5.00,000.00,028.9,027.6,000.0,037.3,030.6,12.4,0003.2,0020.36,0005.84,0004.28
2023-10-24 08:22:00,SystemResetWarning,0824.1,4.99,000.00,029.0,027.6,000.0,037.3,030.6,12.4,0003.2,0018.71,0005.91,0004.29
2023-10-24 08:23:00,SystemResetWarning,0824.1,5.00,000.00,029.0,027.6,000.0,037.3,030.6,12.5,0003.2,0018.63,0005.95,0004.30
2023-10-24 08:24:00,SystemResetWarning,0824.2,5.00,000.00,029.0,027.7,000.0,037.3,030.6,12.5,0003.2,0018.66,0005.91,0004.33
2023-10-24 08:25:00,SystemResetWarning,0824.1,4.99,000.00,029.0,027.7,000.0,037.3,030.7,12.5,0002.8,0018.46,0005.89,0004.34
2023-10-24 08:26:00,SystemResetWarning,0824.1,5.00,000.00,029.0,027.7,000.0,037.3,030.7,12.6,0002.6,0018.67,0005.91,0004.34
2023-10-24 08:27:00,SystemResetWarning,0824.2,5.00,000.00,029.0,027.7,000.0,037.4,030.7,12.6,0002.6,0018.91,0005.93,0004.35
2023-10-24 08:28:00,SystemResetWarning,0824.2,5.00,000.00,029.0,027.7,000.0,037.4,030.7,12.6,0000.2,0019.95,0005.98,0004.35
2023-10-24 08:29:00,SystemResetWarning,0824.2,5.00,000.00,029.0,027.7,000.0,037.4,030.7,12.6,0000.0,0019.39,0005.95,0004.35
2023-10-24 08:30:00,SystemResetWarning,0824.3,5.00,000.00,029.0,027.7,000.0,037.4,030.7,12.6,0000.0,0018.02,0005.97,0004.34
2023-10-24 08:31:00,SystemResetWarning,0824.2,5.00,000.00,029.1,027.7,000.0,037.4,030.7,12.6,0000.0,0017.25,0005.94,0004.32
2023-10-24 08:32:00,SystemResetWarning,0824.3,5.00,000.00,029.1,027.7,000.0,037.4,030.7,12.7,0000.0,0016.84,0005.90,0004.30
2023-10-24 08:33:00,SystemResetWarning,0824.3,4.99,000.00,029.1,027.7,000.0,037.4,030.7,12.7,0000.0,0016.66,0005.85,0004.31
2023-10-24 08:34:00,SystemResetWarning,0824.3,5.00,000.00,029.1,027.8,000.0,037.4,030.8,12.8,0000.0,0016.08,0005.86,0004.30
2023-10-24 08:35:00,SystemResetWarning,0824.3,5.00,000.00,029.1,027.8,000.0,037.4,030.8,12.8,0000.0,0015.83,0005.87,0004.30
2023-10-24 08:36:00,SystemResetWarning,0824.3,4.99,000.00,029.1,027.8,000.0,037.4,030.8,12.8,0000.0,0015.47,0005.89,0004.29
2023-10-24 08:37:00,SystemResetWarning,0824.3,5.00,000.00,029.1,027.8,000.0,037.5,030.8,12.8,0000.0,0015.68,0005.99,0004.29
2023-10-24 08:38:00,SystemResetWarning,0824.3,5.00,000.00,029.1,027.8,000.0,037.5,030.8,12.8,0000.0,0015.84,0005.98,0004.29
2023-10-24 08:39:00,SystemResetWarning,0824.3,5.00,000.00,029.1,027.8,000.0,037.5,030.8,12.7,0000.0,0015.64,0005.95,0004.29
2023-10-24 08:40:00,SystemResetWarning,0824.4,5.00,000.00,029.2,027.8,000.0,037.5,030.8,12.7,0000.0,0016.28,0005.98,0004.30
2023-10-24 08:41:00,SystemResetWarning,0824.4,5.00,000.00,029.1,027.8,000.0,037.5,030.8,12.7,0000.0,0016.05,0006.01,0004.31
2023-10-24 08:42:00,SystemResetWarning,0824.4,5.01,000.00,029.2,027.8,000.0,037.5,030.8,12.8,0000.0,0016.07,0006.10,0004.32
2023-10-24 08:43:00,SystemResetWarning,0824.4,5.00,000.00,029.2,027.8,000.0,037.5,030.8,12.9,0000.0,0016.16,0006.10,0004.33
2023-10-24 08:44:00,SystemResetWarning,0824.4,5.00,000.00,029.2,027.8,000.0,037.6,030.8,13.0,0000.0,0016.71,0006.03,0004.31
2023-10-24 08:45:00,SystemResetWarning,0824.3,4.99,000.00,029.2,027.8,000.0,037.5,030.8,13.0,0000.0,0017.28,0005.98,0004.30
2023-10-24 08:46:00,SystemResetWarning,0824.4,4.99,000.00,029.2,027.8,000.0,037.5,030.8,13.0,0000.0,0016.94,0005.97,0004.28
2023-10-24 08:47:00,SystemResetWarning,0824.4,5.00,000.00,029.2,027.8,000.0,037.5,030.8,13.0,0000.0,0016.52,0005.95,0004.27
2023-10-24 08:48:00,SystemResetWarning,0824.4,5.00,000.00,029.2,027.8,000.0,037.6,030.8,13.0,0000.0,0016.80,0005.84,0004.25
2023-10-24 08:49:00,SystemResetWarning,0824.4,5.00,000.00,029.2,027.8,000.0,037.6,030.8,13.1,0000.0,0016.68,0005.83,0004.25
2023-10-24 08:50:00,SystemResetWarning,0824.5,5.00,000.00,029.2,027.8,000.0,037.6,030.8,13.0,0000.0,0016.48,0005.95,0004.28
2023-10-24 08:51:00,SystemResetWarning,0824.5,5.01,000.00,029.2,027.8,000.0,037.6,030.8,13.1,0000.0,0015.93,0005.96,0004.28
2023-10-24 08:52:00,SystemResetWarning,0824.4,5.00,000.00,029.2,027.8,000.0,037.6,030.9,13.2,0000.0,0015.87,0005.93,0004.28
2023-10-24 08:53:00,SystemResetWarning,0824.5,5.00,000.00,029.2,027.8,000.0,037.6,030.9,13.4,0000.0,0017.49,0005.88,0004.28
2023-10-24 08:54:00,SystemResetWarning,0824.5,5.00,000.00,029.2,027.9,000.0,037.6,030.9,13.4,0000.0,0018.86,0005.87,0004.28
2023-10-24 08:55:00,SystemResetWarning,0824.5,5.00,000.00,029.2,027.9,000.0,037.6,030.9,13.6,0000.0,0018.87,0005.90,0004.29
2023-10-24 08:56:00,SystemResetWarning,0824.5,5.00,000.00,029.3,027.9,000.0,037.6,030.9,13.8,0000.0,0018.22,0005.91,0004.30
2023-10-24 08:57:00,SystemResetWarning,0824.6,5.00,000.00,029.3,027.9,000.0,037.6,030.9,13.9,0000.0,0020.31,0005.90,0004.31
2023-10-24 08:58:00,SystemResetWarning,0824.6,5.00,000.00,029.3,027.9,000.0,037.6,030.9,13.7,0000.0,0020.53,0005.87,0004.32
2023-10-24 08:59:00,SystemResetWarning,0824.6,5.00,000.00,029.3,027.9,000.0,037.6,030.9,13.6,0000.0,0019.72,0005.85,0004.34
